Regional Weather Roundup
Issued by NWS Wakefield, VA

Home | Current Version | Previous Version | Graphics & Text | Print | Product List | Glossary On
Versions: 1 2 3 4 5 6 7 8 9 10 11 12 13 14 15 16 17 18 19 20 21 22 23 24 25 26 27
000
ASUS41 KAKQ 052015
RWRAKQ

REGIONAL WEATHER ROUNDUP
NATIONAL WEATHER SERVICE WAKEFIELD VA
400 PM EDT THU MAY 05 2016

Note: "fair" indicates few or no clouds below 12,000 feet with no
significant weather and/or obstructions to visibility. * = Denotes
station may not report precipitation (e.g., rain,snow,etc.),
thunder or fog.

VAZ042-051-052>054-056-052100-
NORTHERN VIRGINIA

CITY           SKY/WX    TMP DP  RH WIND       PRES   REMARKS
WASH NATIONAL  CLOUDY    57  47  69 N12       29.64F
DULLES         CLOUDY    55  47  74 N12       29.64F
FORT BELVOIR   PTSUNNY   56  48  75 VRB6      29.63F
QUANTICO       CLOUDY    56  48  74 NE9       29.64F
FREDERICKSBRG* CLOUDY    55  52  88 N6G17     29.62S
STAFFORD*      NOT AVBL
WARRENTON      CLOUDY    55  46  71 N12G20    29.64S
CULPEPER*      NOT AVBL
MANASSAS*      CLOUDY    55  48  76 N15       29.64F
LEESBURG*      NOT AVBL
WINCHESTER     NOT AVBL
FRONT ROYAL*   CLOUDY    52  50  93 CALM      29.65S
LURAY*         CLOUDY    52  52 100 N8        29.65S
$$

VAZ048-049-060>072-079>083-052100-
CENTRAL AND SOUTH CENTRAL VIRGINIA

CITY           SKY/WX    TMP DP  RH WIND       PRES   REMARKS
RICHMOND       LGT RAIN  52  48  86 NE12      29.60S
CHESTERFIELD*  CLOUDY    54  39  58 NE7       29.61S
PETERSBURG*    NOT AVBL
HANOVER        CLOUDY    53  48  83 VRB5      29.62S
TAPPAHANNOCK*  CLOUDY    54  50  86 NE8G16    29.61F
QUINTON*       CLOUDY    52  49  91 NE7       29.59F
CHARLOTTSVILLE CLOUDY    54  48  80 N12       29.63S
GORDONSVILLE*  CLOUDY    53  50  89 N9        29.63S
ORANGE*        NOT AVBL
LOUISA*        CLOUDY    55  54  94 N6        29.61F
BUMPASS*       CLOUDY    52  49  89 NE5       29.62S
FARMVILLE*     NOT AVBL
CREWE*         CLOUDY    52  52 100 CALM      29.60S VSB 1
FORT PICKETT*  NOT AVBL
CHASE CITY*    CLOUDY    52  51  95 NE6       29.59R
CLARKSVILLE*   CLOUDY    52  52 100 NE5       29.59S
SOUTH HILL*    CLOUDY    52  51  97 NW6       29.64S
LAWRENCEVILLE* CLOUDY    53  52  97 N6        29.57S
EMPORIA*       CLOUDY    54  50  87 N6        29.58S
$$

VAZ088>098-052100-
SOUTHEAST VIRGINIA

CITY           SKY/WX    TMP DP  RH WIND       PRES   REMARKS
NORFOLK        CLOUDY    54  48  80 NE18G28   29.54F
VIRGINIA BEACH CLOUDY    57  47  69 NE21G32   29.55F
NORFOLK NAVAL  CLOUDY    55  49  80 NE10G24   29.57F
WEST POINT*    NOT AVBL
SALUDA*        CLOUDY    52  49  89 N8        29.59F
NEWPORT NEWS   CLOUDY    54  50  86 N9G20     29.57F
LANGLEY AFB    CLOUDY    54  49  83 NE16      29.56F
FORT EUSTIS    CLOUDY    54  48  80 VRB7G17   29.55F
WILLIAMSBURG*  NOT AVBL
HR EXEC AP*    CLOUDY    54  48  82 NE9       29.58S
FRANKLIN*      NOT AVBL
US460-WAKEFLD  LGT RAIN  53  51  93 VRB5      29.57F
$$

VAZ020-022-025-037-045-052100-
WEST CENTRAL AND SOUTHWEST VIRGINIA

CITY           SKY/WX    TMP DP  RH WIND       PRES   REMARKS
STAUNTON*      NOT AVBL
WAYNESBORO*    CLOUDY    49  48  96 N9        29.64S
HOT SPRINGS VA LGT RAIN  42  42 100 NW10      29.62F VSB<1/4
LYNCHBURG      LGT RAIN  52  50  93 NE7       29.62F
DANVILLE       RAIN      50  48  93 W9        29.62R FOG
SOUTH BOSTON*  CLOUDY    53  52  96 NE3       29.60S
MARTINSVILLE   LGT RAIN  44  41  88 NW14G21   29.68R
ROANOKE        LGT RAIN  50  44  80 NW10      29.67S
BLACKSBURG     LGT RAIN  44  42  92 W7        29.71S
DUBLIN*        RAIN      45  42  91 NW3       29.71S
MARION*        NOT AVBL
HILLSVILLE*    LGT RAIN  40  38  94 NW15G21   29.67S
RICHLANDS*     NOT AVBL
WISE*          CLOUDY    48  32  53 NW12G17   29.76F
ABINGDON*      NOT AVBL
$$

MDZ021>025-VAZ099-100-052100-
SOUTHERN MARYLAND AND THE DELMARVA PENINSULA

CITY           SKY/WX    TMP DP  RH WIND       PRES   REMARKS
PATUXENT RIVER CLOUDY    53  46  77 N14       29.61S
BAY BRIDGE APT NOT AVBL
LEONARDTOWN    CLOUDY    52  45  76 NE8       29.63F
DOVER          CLOUDY    54  52  94 N13       29.61F
GEORGETOWN     CLOUDY    52  48  86 NE13      29.61F
EASTON         CLOUDY   N/A N/A N/A NE12      29.66S
CAMBRIDGE      CLOUDY    52  46  82 NE9       29.61F
SALISBURY      CLOUDY    51  49  92 NE12      29.60F
OCEAN CITY     CLOUDY    50  46  86 NE16G26   29.60S
WALLOPS ISLAND CLOUDY    52  46  80 NE16G25   29.59F
ACCOMACK*      CLOUDY   N/A N/A N/A NE9       29.58F
$$

NCZ012>017-030>032-052100-
NORTH CENTRAL AND EASTERN NORTH CAROLINA

CITY           SKY/WX    TMP DP  RH WIND       PRES   REMARKS
ROANOKE RAPIDS RAIN      54  52  94 NE7       29.56F
RALEIGH        LGT RAIN  52  50  93 NW8       29.59F
ELIZABETH CITY CLOUDY    54  49  83 N17G28    29.55R
AHOSKIE*       RAIN      53  51  95 NE5       29.56F
EDENTON*       CLOUDY    55  54  94 N9        29.56S
CURRITUCK*     CLOUDY    53  49  87 N18G28    29.55S
KILL DEVIL HLS CLOUDY    55  49  80 N10G22    29.51F
MANTEO         CLOUDY    54  51  89 NE20G26   29.52F
CAPE HATTERAS  CLOUDY    57  53  86 NE10G22   29.50S
TARBORO*       RAIN      56  54  92 NE3       29.57R
GOLDSBORO      LGT RAIN  55  55 100 NW13      29.54S
WASHINGTON     PTSUNNY   56  54  93 NE5       29.54R
GREENVILLE     RAIN      55  55 100 N3        29.59R
NEW BERN       TSTM      58  55  90 NE12      29.52S FOG
WILMINGTON     CLOUDY    59  54  83 N13       29.54R
$$

VAZ048-052100-
ELSEWHERE

CITY           SKY/WX    TMP DP  RH WIND       PRES   REMARKS
HARRISBURG PA  CLOUDY    57  44  62 N9        29.64F
BALTIMORE      DRIZZLE   54  46  74 N10       29.63F
ANNAPOLIS      CLOUDY    55  47  74 N8        29.63F
ANDREWS AFB    PTSUNNY   54  48  82 N12       29.62F
PHILADELPHIA   CLOUDY    56  45  66 E10       29.64F
HENDERSON NC   HVY RAIN  53  53 100 CALM      29.59R
GREENSBORO     LGT RAIN  51  45  79 N7        29.64S
ROCKY MOUNT    RAIN      54  52  93 NW6       29.57S FOG
$$

VAZ100-052100-
MARINE

STATION/POSITION TIME  TEMP    WIND        PRES    WAVE   SWELL
                       AIR SEA DIR/SP/G            HT/PER HT/PER
                 (UTC) (F)     (DEG/KT/KT) (MB)    (FT/S) (FT/S)
BRANDYWINE LGT   1900   51      50/ 12/ 16 1003.3R
CAPE MAY NJ      1900   52 56   20/  5/ 10 1002.8F
LEWES DE         1900   50 55   40/ 10/ 11 1003.1F
15NM E FENWICK I 1950   49 51              1001.6F   8/ 8
OCEAN-CITY-INLET 1900   50 55   40/ 13/ 22 1001.8F
WACHAPREAGUE VA  1900   52 59   40/ 17/ 22 1001.5R
THOMAS POINT MD  2000   54 58   10/ 16/ 18 1004.4F
GOOSES REEF MD   2000   54 58   30/ 14/ 17 1004.0F   2/ 3
COVE POINT MD    1900   51      50/ 16/ 20 1003.4F
SOLOMONS ISLAND  1900   53 60   20/ 12/ 19   N/A
BISHOPS HEAD MD  1900   54 58   40/ 13/ 18 1001.7F
PINEY POINT MD   1900           40/  9/ 12   N/A
POTOMAC MD       2000   53 59   30/ 14/ 17 1001.3F   1
CAMBRIDGE MD     1900   53 60   40/ 12/ 13 1002.2F
LEWISETTA VA     1900   54 61   60/  6/  9 1002.4S
RAPPAHANNOCK LGT 1900           20/ 19/ 21 1002.3S
STINGRAY PT      2000   54 61   30/ 16/ 19 1001.9F   2/ 3
YORK RVR RNG VA  1900   54      40/ 17/ 21 1001.0F
YORKTOWN VA      1900   54 63   30/ 13/ 19 1001.4F
JAMESTOWN VA     2000   53 67   30/ 10/ 14   N/A     0
DOMINION TERM VA 1900   55      40/  8/ 15 1001.2F
KIPTOPEKE VA     1900      61   60/ 12/ 19   N/A
CHES BAY BRIDGE  1900   53 62   30/ 22/ 26 1000.7F
CAPE HENRY VA    1900   52      30/ 23/ 28   N/A
CHESAPEAKE LGHT  1900   50      30/ 28/ 30 1001.2F
WILLOUBY STN VA  1900   54      30/ 13/ 15 1002.2F
CAPE HENRY BUOY  1912      55                N/A     7/ 7
CAPE CHARLES BUO 1926      57                N/A     6/ 6   2/18
OFFSHORE WE BUOY 1921      54                N/A     7/ 7   3/11
64NM E OF VA BCH 1950   51 52   20/ 21/ 25  998.7F   7/ 7   3/16
DUCK PIER NC     1900   52 62   20/ 23/ 28  999.4R
44100 DUCK FRF   1924      55                N/A     8/ 7
44056 DUCK FRF   1911      59                N/A     6/ 6
OREGON INLET NC  1900   53 61   20/ 18/ 23  999.2F
HATTERAS NC      1900   57 68   30/ 16/ 23  998.6S
DIAMOND SHLS NC  1950   58 77   30/ 21/ 25  998.0F   6/ 6
CAPE LOOKOUT NC  2000   61      70/ 14/ 15  998.6R
$$




USA.gov is the U.S. government's official web portal to all federal, state and local government web resources and services.